Home   Weather   Post Falls   Past weeks

Flag for USA Past Weather in Post Falls, Idaho, USA — Yesterday and Last 2 Weeks

Now
57 °F

Overcast.


Feels Like: 55 °F
Forecast: 43 / 57 °F
Wind: 10 mph from Southwest

Location: Coeur d'Alene Weather Reporting System

Current Time: Apr 30, 2017 at 3:33:25 pm

Latest Report: Apr 30, 2017 at 2:56 pm


Visibility: 10 mi

Pressure: 30.06 "Hg (27.78 "Hg at 664m altitude)

Humidity: 47%

Dew Point: 37 °F

Location of Post FallsLocation

Past Weather in Post Falls — Graph

°F

Post Falls Temperature Yesterday

Maximum temperature yesterday: 60 °F (at 3:56 pm)
Minimum temperature yesterday: 41 °F (at 4:56 am)
Average temperature yesterday: 50 °F

High & Low Weather Summary for the Past Weeks

 TemperatureHumidityPressure
High65 °F (Apr 22, 1:56 pm)100% (Apr 16, 4:56 am)30.45 "Hg (Apr 16, 4:56 am)
Low25 °F (Apr 16, 3:56 am)27% (Apr 22, 12:56 pm)29.68 "Hg (Apr 26, 7:09 pm)
Average46 °F76%30.03 "Hg
* Reported Apr 15 1:56 pm — Apr 30 1:56 pm, Post Falls, Weather by CustomWeather, © 2017

Note: Actual official high and low records may vary slightly from our data, if they occured in-between our weather recording intervals... More about our weather records

Advertising

Post Falls Weather History for the Previous 24 Hours

Scroll right to see more
 ConditionsComfort  
Time TempWeatherWind HumidityBarometerVisibility
1:56 pm
Sun, Apr 30
57 °FPartly sunny.18 mph42%30.06 "Hg10 mi
12:56 pm55 °FOvercast.14 mph45%30.06 "Hg10 mi
11:56 am55 °FScattered clouds.17 mph57%30.07 "Hg10 mi
10:56 am53 °FLight rain. Mostly cloudy.17 mph64%30.07 "Hg10 mi
9:56 am51 °FMostly cloudy.12 mph66%30.07 "Hg10 mi
8:56 am49 °FOvercast.8 mph71%30.08 "Hg10 mi
7:56 am48 °FOvercast.10 mph77%30.09 "Hg10 mi
7:37 am46 °FOvercast.8 mph82%30.02 "Hg10 mi
6:56 am47 °FOvercast.3 mph77%30.09 "Hg10 mi
6:28 am46 °FOvercast.No wind82%30.02 "Hg10 mi
5:56 am46 °FOvercast.3 mph83%30.07 "Hg10 mi
4:56 am45 °FLight rain. Overcast.9 mph82%30.07 "Hg10 mi
3:56 am47 °FLight rain. Overcast.12 mph71%30.07 "Hg10 mi
1:56 am47 °FLight rain. Overcast.13 mph66%30.10 "Hg10 mi
12:56 am47 °FLight rain. Mostly cloudy.14 mph66%30.11 "Hg10 mi
11:56 pm
Sat, Apr 29
47 °FLight rain. Mostly cloudy.13 mph64%30.14 "Hg10 mi
10:56 pm47 °FLight rain. Overcast.8 mph69%30.16 "Hg10 mi
9:56 pm50 °FMostly cloudy.12 mph52%30.14 "Hg10 mi
8:56 pm52 °FClear.14 mph43%30.13 "Hg10 mi
7:56 pm52 °FClear.8 mph59%30.13 "Hg10 mi
6:56 pm55 °FSunny.12 mph51%30.14 "Hg10 mi
5:56 pm57 °FScattered clouds.14 mph46%30.16 "Hg10 mi
4:56 pm58 °FBroken clouds.14 mph44%30.17 "Hg10 mi
3:56 pm60 °FMostly cloudy.14 mph41%30.18 "Hg10 mi
Weather by CustomWeather, © 2017

See weather overviewHow to use our weather pages